Regional Weather Roundup
Issued by NWS

Home | Current Version | Previous Version | Graphics & Text | Print | Product List | Glossary On
Versions: 1 2 3 4 5 6 7 8 9 10 11 12 13 14 15 16 17 18 19 20 21 22 23 24 25 26 27 28 29 30 31 32 33 34 35 36 37 38 39 40 41 42 43 44 45 46 47 48 49 50
329
ASUS45 KBOI 061710
RWRID

IDAHO REGIONAL WEATHER ROUNDUP
NATIONAL WEATHER SERVICE BOISE ID
1100 AM MDT FRI MAY 06 2016

NOTE: "FAIR" INDICATES FEW OR NO CLOUDS BELOW 12000 FEET
WITH NO SIGNIFICANT WEATHER AND/OR OBSTRUCTIONS TO VISIBILITY

IDZ012-014-061800-
SOUTHWEST IDAHO


CITY           SKY/WX    TMP DP  RH WIND       PRES   REMARKS
BOISE          CLOUDY    60  50  69 CALM      29.84R
CALDWELL       CLOUDY    65  53  65 W10       29.82S
MOUNTAIN HOME  PTSUNNY   63  50  61 NW6       29.84S
$$

IDZ016-017-061800-
SOUTHCENTRAL IDAHO


CITY           SKY/WX    TMP DP  RH WIND       PRES   REMARKS
BURLEY         CLOUDY    55  49  80 NE14G20   29.87S
JEROME         CLOUDY    59  49  69 CALM      29.88R
TWIN FALLS     CLOUDY    57  47  69 N7        29.87R
$$

IDZ019>023-061800-
SOUTHEAST IDAHO


CITY           SKY/WX    TMP DP  RH WIND       PRES   REMARKS
IDAHO FALLS    CLOUDY    63  42  46 NE18G25   29.94R
POCATELLO      CLOUDY    60  47  61 S13       29.93R
REXBURG        LGT RAIN  57  42  57 NE10      29.96S
$$

IDZ006-010-011-018-031-032-061800-
CENTRAL IDAHO MOUNTAINS


CITY           SKY/WX    TMP DP  RH WIND       PRES   REMARKS
MCCALL         CLOUDY    59  42  53 NW3       29.93F
HAILEY         CLOUDY    57  46  67 SW5       29.99R
STANLEY          N/A     53  39  59 NW7       30.05S
SALMON         CLOUDY    61  45  55 N8        30.02F
CHALLIS        CLOUDY    57  47  69 CALM      30.04R
$$

IDZ002-004-006-007-026-061800-
NORTHERN IDAHO


CITY           SKY/WX    TMP DP  RH WIND       PRES   REMARKS
LEWISTON       CLOUDY    63  56  78 VRB3      29.98S
LOWELL           N/A     60  57  89 CALM      29.96F
COEUR D`ALENE  MOSUNNY  N/A N/A N/A NE22G28   30.03S
MULLAN PASS    FOG       44  44 100 VRB3      30.14S VSB<1/4
$$




USA.gov is the U.S. government's official web portal to all federal, state and local government web resources and services.